#timestamp,LO_Frequency,Hit,StdDev 
1618277455.9,286046998.5,P
1618277475.7,286046998.5,N
1618277495.6,286047000.9,N
1618277515.4,286046998.6,N
1618277535.2,286046999.7,N
1618277555.1,286047004.0,Y
1618277556.0,286047004.0,P
1618277575.8,286047005.1,N
1618277595.7,286047007.6,P
1618277615.5,286047006.3,N
1618277635.3,286047005.2,N
1618277655.2,286047005.3,N
1618277675.0,286047009.4,Y
1618277675.9,286047009.4,P
1618277695.8,286047006.6,N
1618277715.6,286047006.6,P
1618277735.4,286047008.3,Y
1618277755.3,286046999.9,P
1618277775.1,286047002.9,N
1618277795.9,286047004.0,N
1618277815.7,286046998.1,N
1618277835.5,286046998.0,N
1618277855.4,286046995.4,N
1618277875.2,286046996.3,N
1618277895.0,286046994.2,N
1618277895.9,286046994.2,N
1618277915.8,286046995.4,N
1618277935.6,286046995.3,N
1618277955.5,286046998.7,N
1618277975.3,286046998.9,N
1618277995.1,286047001.2,N
1618278015.9,286047001.0,N
1618278035.7,286047001.0,N
1618278055.5,286047001.1,N
1618278075.4,286047000.2,N
1618278095.2,286047001.2,N
1618278115.1,286046996.7,N
1618278116.0,286046996.7,N
1618278135.8,286047002.5,N
1618278155.6,286047000.1,N
1618278175.5,286046999.3,N
1618278195.3,286046995.7,N
1618278215.1,286046991.8,N
1618278235.9,286046993.0,N
1618278255.7,286046993.0,N
1618278275.6,286046991.6,N
1618278295.4,286046990.5,N
1618278315.2,286046995.7,N
1618278335.1,286046993.5,N
1618278336.0,286046993.5,N
1618278355.8,286046993.4,N
1618278375.6,286046994.3,N
1618278395.5,286046992.0,N
1618278415.3,286046993.8,N
1618278435.2,286046998.0,N
1618278455.9,286046997.5,N
1618278475.7,286046993.3,N
1618278495.6,286046997.7,N
1618278515.4,286046997.6,N
1618278535.2,286046996.0,N
1618278555.1,286046993.4,N
1618278556.0,286046993.4,N
1618278575.8,286046995.0,N
1618278595.7,286046997.4,N
1618278615.5,286046995.6,N
1618278635.3,286046995.2,N
1618278655.2,286046998.0,N
1618278675.0,286046997.6,N
1618278675.9,286046997.6,N
1618278695.7,286046995.9,N
1618278715.6,286046992.4,Y
1618278735.4,286046998.0,P
1618278755.3,286046993.3,P
1618278775.1,286046994.2,P
1618278776.0,286046994.2,Y
1618278795.8,286046998.1,P
1618278815.7,286047002.8,N
1618278835.5,286047002.4,N
1618278855.4,286047003.8,N
1618278875.2,286047005.7,N
1618278895.0,286047005.8,N
1618278895.9,286047005.8,N
1618278915.8,286047005.5,N
1618278935.6,286047003.7,N
1618278955.4,286047006.0,N
1618278975.3,286047003.7,N
1618278995.1,286047002.0,N
1618279015.9,286046999.9,N
1618279035.7,286047001.5,N
1618279055.5,286047001.1,N
1618279075.4,286046998.4,N
1618279095.2,286046999.6,N
1618279115.0,286046998.6,N
1618279115.9,286046998.6,N
1618279135.8,286047001.3,N
1618279155.6,286047002.4,N
1618279175.5,286047002.8,N
1618279195.3,286046999.7,N
